﻿測定場所 (Monitoring sites),日付 (Measurement date),時間 (Measurement time),線量率 最大値 (max) μGy/h,線量率 最小値 (min) μGy/h,線量率 平均値 (average) μGy/h,
大田 (Ota),2013-01-20,23:01～24:00,0.0532,0.0469,0.0498,
大田 (Ota),2013-01-20,22:01～23:00,0.0537,0.0461,0.0497,
大田 (Ota),2013-01-20,21:01～22:00,0.0531,0.0457,0.0499,
大田 (Ota),2013-01-20,20:01～21:00,0.0542,0.0473,0.0501,
大田 (Ota),2013-01-20,19:01～20:00,0.0534,0.0466,0.0497,
大田 (Ota),2013-01-20,18:01～19:00,0.0526,0.0470,0.0498,
大田 (Ota),2013-01-20,17:01～18:00,0.0528,0.0464,0.0496,
大田 (Ota),2013-01-20,16:01～17:00,0.0535,0.0470,0.0505,
大田 (Ota),2013-01-20,15:01～16:00,0.0528,0.0464,0.0500,
大田 (Ota),2013-01-20,14:01～15:00,0.0555,0.0474,0.0500,
大田 (Ota),2013-01-20,13:01～14:00,0.0546,0.0457,0.0503,
大田 (Ota),2013-01-20,12:01～13:00,0.0538,0.0466,0.0508,
大田 (Ota),2013-01-20,11:01～12:00,0.0540,0.0474,0.0509,
大田 (Ota),2013-01-20,10:01～11:00,0.0533,0.0483,0.0509,
大田 (Ota),2013-01-20,09:01～10:00,0.0530,0.0474,0.0505,
大田 (Ota),2013-01-20,08:01～09:00,0.0535,0.0471,0.0503,
大田 (Ota),2013-01-20,07:01～08:00,0.0532,0.0470,0.0503,
大田 (Ota),2013-01-20,06:01～07:00,0.0527,0.0473,0.0499,
大田 (Ota),2013-01-20,05:01～06:00,0.0534,0.0452,0.0498,
大田 (Ota),2013-01-20,04:01～05:00,0.0543,0.0459,0.0501,
大田 (Ota),2013-01-20,03:01～04:00,0.0533,0.0468,0.0499,
大田 (Ota),2013-01-20,02:01～03:00,0.0529,0.0475,0.0499,
大田 (Ota),2013-01-20,01:01～02:00,0.0537,0.0471,0.0499,
大田 (Ota),2013-01-20,00:01～01:00,0.0541,0.0460,0.0500,
大田 (Ota),2013-01-19,23:01～24:00,0.0531,0.0464,0.0498,
大田 (Ota),2013-01-19,22:01～23:00,0.0536,0.0469,0.0501,
大田 (Ota),2013-01-19,21:01～22:00,0.0529,0.0460,0.0501,
大田 (Ota),2013-01-19,20:01～21:00,0.0532,0.0467,0.0502,
大田 (Ota),2013-01-19,19:01～20:00,0.0543,0.0462,0.0498,
大田 (Ota),2013-01-19,18:01～19:00,0.0532,0.0466,0.0498,
大田 (Ota),2013-01-19,17:01～18:00,0.0547,0.0469,0.0499,
大田 (Ota),2013-01-19,16:01～17:00,0.0528,0.0468,0.0501,
大田 (Ota),2013-01-19,15:01～16:00,0.0539,0.0463,0.0498,
大田 (Ota),2013-01-19,14:01～15:00,0.0545,0.0464,0.0496,
大田 (Ota),2013-01-19,13:01～14:00,0.0537,0.0451,0.0499,
大田 (Ota),2013-01-19,12:01～13:00,0.0544,0.0469,0.0502,
大田 (Ota),2013-01-19,11:01～12:00,0.0540,0.0470,0.0510,
大田 (Ota),2013-01-19,10:01～11:00,0.0558,0.0471,0.0510,
大田 (Ota),2013-01-19,09:01～10:00,0.0553,0.0464,0.0509,
大田 (Ota),2013-01-19,08:01～09:00,0.0555,0.0471,0.0504,
大田 (Ota),2013-01-19,07:01～08:00,0.0535,0.0471,0.0501,
大田 (Ota),2013-01-19,06:01～07:00,0.0523,0.0460,0.0499,
大田 (Ota),2013-01-19,05:01～06:00,0.0536,0.0469,0.0501,
大田 (Ota),2013-01-19,04:01～05:00,0.0527,0.0461,0.0500,
大田 (Ota),2013-01-19,03:01～04:00,0.0528,0.0464,0.0497,
大田 (Ota),2013-01-19,02:01～03:00,0.0535,0.0469,0.0497,
大田 (Ota),2013-01-19,01:01～02:00,0.0536,0.0464,0.0499,
大田 (Ota),2013-01-19,00:01～01:00,0.0527,0.0474,0.0499,
大田 (Ota),2013-01-18,23:01～24:00,0.0522,0.0470,0.0499,
大田 (Ota),2013-01-18,22:01～23:00,0.0532,0.0459,0.0497,
大田 (Ota),2013-01-18,21:01～22:00,0.0531,0.0461,0.0499,
大田 (Ota),2013-01-18,20:01～21:00,0.0539,0.0449,0.0497,
大田 (Ota),2013-01-18,19:01～20:00,0.0533,0.0469,0.0498,
大田 (Ota),2013-01-18,18:01～19:00,0.0553,0.0458,0.0497,
大田 (Ota),2013-01-18,17:01～18:00,0.0536,0.0465,0.0498,
大田 (Ota),2013-01-18,16:01～17:00,0.0542,0.0470,0.0500,
大田 (Ota),2013-01-18,15:01～16:00,0.0535,0.0452,0.0495,
大田 (Ota),2013-01-18,14:01～15:00,0.0522,0.0466,0.0496,
大田 (Ota),2013-01-18,13:01～14:00,0.0536,0.0465,0.0496,
大田 (Ota),2013-01-18,12:01～13:00,0.0527,0.0463,0.0497,
大田 (Ota),2013-01-18,11:01～12:00,0.0526,0.0458,0.0495,
大田 (Ota),2013-01-18,10:01～11:00,0.0534,0.0466,0.0502,
大田 (Ota),2013-01-18,09:01～10:00,0.0542,0.0452,0.0492,
大田 (Ota),2013-01-18,08:01～09:00,0.0530,0.0459,0.0494,
大田 (Ota),2013-01-18,07:01～08:00,0.0528,0.0455,0.0495,
大田 (Ota),2013-01-18,06:01～07:00,0.0528,0.0456,0.0496,
大田 (Ota),2013-01-18,05:01～06:00,0.0534,0.0467,0.0498,
大田 (Ota),2013-01-18,04:01～05:00,0.0550,0.0446,0.0499,
大田 (Ota),2013-01-18,03:01～04:00,0.0527,0.0465,0.0495,
大田 (Ota),2013-01-18,02:01～03:00,0.0521,0.0449,0.0492,
大田 (Ota),2013-01-18,01:01～02:00,0.0527,0.0451,0.0496,
大田 (Ota),2013-01-18,00:01～01:00,0.0522,0.0471,0.0495,
大田 (Ota),2013-01-17,23:01～24:00,0.0531,0.0463,0.0498,
大田 (Ota),2013-01-17,22:01～23:00,0.0532,0.0468,0.0500,
大田 (Ota),2013-01-17,21:01～22:00,0.0545,0.0462,0.0500,
大田 (Ota),2013-01-17,20:01～21:00,0.0544,0.0464,0.0499,
大田 (Ota),2013-01-17,19:01～20:00,0.0533,0.0466,0.0495,
大田 (Ota),2013-01-17,18:01～19:00,0.0525,0.0463,0.0499,
大田 (Ota),2013-01-17,17:01～18:00,0.0527,0.0466,0.0500,
大田 (Ota),2013-01-17,16:01～17:00,0.0528,0.0460,0.0497,
大田 (Ota),2013-01-17,15:01～16:00,0.0526,0.0475,0.0500,
大田 (Ota),2013-01-17,14:01～15:00,0.0550,0.0472,0.0499,
大田 (Ota),2013-01-17,13:01～14:00,0.0536,0.0470,0.0499,
大田 (Ota),2013-01-17,12:01～13:00,0.0533,0.0473,0.0503,
大田 (Ota),2013-01-17,11:01～12:00,0.0558,0.0470,0.0506,
大田 (Ota),2013-01-17,10:01～11:00,0.0536,0.0466,0.0503,
大田 (Ota),2013-01-17,09:01～10:00,0.0542,0.0472,0.0505,
大田 (Ota),2013-01-17,08:01～09:00,0.0548,0.0474,0.0507,
大田 (Ota),2013-01-17,07:01～08:00,0.0543,0.0470,0.0502,
大田 (Ota),2013-01-17,06:01～07:00,0.0529,0.0471,0.0501,
大田 (Ota),2013-01-17,05:01～06:00,0.0538,0.0469,0.0498,
大田 (Ota),2013-01-17,04:01～05:00,0.0545,0.0469,0.0497,
大田 (Ota),2013-01-17,03:01～04:00,0.0550,0.0462,0.0500,
大田 (Ota),2013-01-17,02:01～03:00,0.0539,0.0472,0.0504,
大田 (Ota),2013-01-17,01:01～02:00,0.0527,0.0466,0.0499,
大田 (Ota),2013-01-17,00:01～01:00,0.0545,0.0459,0.0493,
大田 (Ota),2013-01-16,23:01～24:00,0.0520,0.0463,0.0495,
大田 (Ota),2013-01-16,22:01～23:00,0.0527,0.0463,0.0494,
大田 (Ota),2013-01-16,21:01～22:00,0.0523,0.0467,0.0495,
大田 (Ota),2013-01-16,20:01～21:00,0.0524,0.0454,0.0495,
大田 (Ota),2013-01-16,19:01～20:00,0.0530,0.0470,0.0497,
大田 (Ota),2013-01-16,18:01～19:00,0.0526,0.0468,0.0492,
大田 (Ota),2013-01-16,17:01～18:00,0.0522,0.0456,0.0491,
大田 (Ota),2013-01-16,16:01～17:00,0.0536,0.0465,0.0493,
大田 (Ota),2013-01-16,15:01～16:00,0.0520,0.0463,0.0491,
大田 (Ota),2013-01-16,14:01～15:00,0.0524,0.0463,0.0492,
大田 (Ota),2013-01-16,13:01～14:00,0.0528,0.0461,0.0492,
大田 (Ota),2013-01-16,12:01～13:00,0.0517,0.0454,0.0487,
大田 (Ota),2013-01-16,11:01～12:00,0.0508,0.0453,0.0483,
大田 (Ota),2013-01-16,10:01～11:00,0.0516,0.0443,0.0477,
大田 (Ota),2013-01-16,09:01～10:00,0.0514,0.0433,0.0477,
大田 (Ota),2013-01-16,08:01～09:00,0.0516,0.0438,0.0476,
大田 (Ota),2013-01-16,07:01～08:00,0.0507,0.0435,0.0474,
大田 (Ota),2013-01-16,06:01～07:00,0.0509,0.0432,0.0472,
大田 (Ota),2013-01-16,05:01～06:00,0.0508,0.0439,0.0470,
大田 (Ota),2013-01-16,04:01～05:00,0.0507,0.0448,0.0474,
大田 (Ota),2013-01-16,03:01～04:00,0.0510,0.0443,0.0473,
大田 (Ota),2013-01-16,02:01～03:00,0.0502,0.0436,0.0468,
大田 (Ota),2013-01-16,01:01～02:00,0.0510,0.0443,0.0474,
大田 (Ota),2013-01-16,00:01～01:00,0.0508,0.0449,0.0473,
大田 (Ota),2013-01-15,23:01～24:00,0.0504,0.0436,0.0471,
大田 (Ota),2013-01-15,22:01～23:00,0.0497,0.0448,0.0472,
大田 (Ota),2013-01-15,21:01～22:00,0.0508,0.0442,0.0471,
大田 (Ota),2013-01-15,20:01～21:00,0.0502,0.0429,0.0467,
大田 (Ota),2013-01-15,19:01～20:00,0.0509,0.0435,0.0465,
大田 (Ota),2013-01-15,18:01～19:00,0.0496,0.0439,0.0468,
大田 (Ota),2013-01-15,17:01～18:00,0.0498,0.0418,0.0466,
大田 (Ota),2013-01-15,16:01～17:00,0.0498,0.0437,0.0467,
大田 (Ota),2013-01-15,15:01～16:00,0.0508,0.0421,0.0468,
大田 (Ota),2013-01-15,14:01～15:00,0.0504,0.0439,0.0462,
大田 (Ota),2013-01-15,13:01～14:00,0.0495,0.0417,0.0460,
大田 (Ota),2013-01-15,12:01～13:00,0.0496,0.0414,0.0456,
大田 (Ota),2013-01-15,11:01～12:00,0.0477,0.0419,0.0452,
大田 (Ota),2013-01-15,10:01～11:00,0.0471,0.0398,0.0445,
大田 (Ota),2013-01-15,09:01～10:00,0.0467,0.0410,0.0436,
大田 (Ota),2013-01-15,08:01～09:00,0.0470,0.0408,0.0430,
大田 (Ota),2013-01-15,07:01～08:00,0.0463,0.0398,0.0428,
大田 (Ota),2013-01-15,06:01～07:00,0.0459,0.0400,0.0428,
大田 (Ota),2013-01-15,05:01～06:00,0.0452,0.0378,0.0425,
大田 (Ota),2013-01-15,04:01～05:00,0.0463,0.0399,0.0430,
大田 (Ota),2013-01-15,03:01～04:00,0.0459,0.0395,0.0427,
大田 (Ota),2013-01-15,02:01～03:00,0.0465,0.0403,0.0427,
大田 (Ota),2013-01-15,01:01～02:00,0.0460,0.0399,0.0427,
大田 (Ota),2013-01-15,00:01～01:00,0.0451,0.0398,0.0423,
大田 (Ota),2013-01-14,23:01～24:00,0.0456,0.0389,0.0423,
大田 (Ota),2013-01-14,22:01～23:00,0.0462,0.0393,0.0424,
大田 (Ota),2013-01-14,21:01～22:00,0.0474,0.0414,0.0438,
大田 (Ota),2013-01-14,20:01～21:00,0.0524,0.0428,0.0473,
大田 (Ota),2013-01-14,19:01～20:00,0.0531,0.0460,0.0494,
大田 (Ota),2013-01-14,18:01～19:00,0.0564,0.0466,0.0508,
大田 (Ota),2013-01-14,17:01～18:00,0.0564,0.0487,0.0531,
大田 (Ota),2013-01-14,16:01～17:00,0.0551,0.0477,0.0516,
大田 (Ota),2013-01-14,15:01～16:00,0.0571,0.0500,0.0535,
大田 (Ota),2013-01-14,14:01～15:00,0.0607,0.0511,0.0557,
大田 (Ota),2013-01-14,13:01～14:00,0.0681,0.0551,0.0618,
大田 (Ota),2013-01-14,12:01～13:00,0.0725,0.0644,0.0680,
大田 (Ota),2013-01-14,11:01～12:00,0.0763,0.0652,0.0708,
大田 (Ota),2013-01-14,10:01～11:00,0.0745,0.0667,0.0709,
大田 (Ota),2013-01-14,09:01～10:00,0.0721,0.0620,0.0668,
大田 (Ota),2013-01-14,08:01～09:00,0.0696,0.0599,0.0653,
大田 (Ota),2013-01-14,07:01～08:00,0.0700,0.0609,0.0653,
大田 (Ota),2013-01-14,06:01～07:00,0.0719,0.0618,0.0661,
大田 (Ota),2013-01-14,05:01～06:00,0.0725,0.0617,0.0678,
大田 (Ota),2013-01-14,04:01～05:00,0.0661,0.0591,0.0633,
大田 (Ota),2013-01-14,03:01～04:00,0.0620,0.0521,0.0571,
大田 (Ota),2013-01-14,02:01～03:00,0.0548,0.0482,0.0515,
大田 (Ota),2013-01-14,01:01～02:00,0.0536,0.0482,0.0513,
大田 (Ota),2013-01-14,00:01～01:00,0.0556,0.0468,0.0510,
